Time,TemperatureF,DewpointF,PressureIn,WindDirection,WindDirectionDegrees,WindSpeedMPH,WindSpeedGustMPH,Humidity,HourlyPrecipIn,Conditions,Clouds,dailyrainin,SolarRadiationWatts/m^2,SoftwareType,DateUTC
2013-02-02 00:04:00,21.1,8.2,30.31,West,261,4.0,7.0,57,0.00,,,0.00,0,Wunderground v.1.15,2013-02-02 05:04:00,
2013-02-02 00:09:00,21.0,8.1,30.31,WSW,238,4.0,6.0,57,0.00,,,0.00,0,Wunderground v.1.15,2013-02-02 05:09:00,
2013-02-02 00:14:00,20.9,8.0,30.31,West,272,4.0,6.0,57,0.00,,,0.00,0,Wunderground v.1.15,2013-02-02 05:14:00,
2013-02-02 00:19:00,20.8,8.3,30.31,WNW,288,4.0,6.0,58,0.00,,,0.00,0,Wunderground v.1.15,2013-02-02 05:19:00,
2013-02-02 00:29:00,20.8,7.9,30.31,WNW,298,3.0,8.0,57,0.00,,,0.00,0,Wunderground v.1.15,2013-02-02 05:29:00,
2013-02-02 00:39:00,20.6,8.1,30.31,SW,229,4.0,4.0,58,0.00,,,0.00,0,Wunderground v.1.15,2013-02-02 05:39:00,
2013-02-02 00:44:00,20.6,7.8,30.31,SW,226,3.0,6.0,57,0.00,,,0.00,0,Wunderground v.1.15,2013-02-02 05:44:00,
2013-02-02 00:49:00,20.6,7.8,30.31,West,273,4.0,4.0,57,0.00,,,0.00,0,Wunderground v.1.15,2013-02-02 05:49:00,
2013-02-02 00:54:00,20.4,8.0,30.31,WNW,289,4.0,6.0,58,0.00,,,0.00,0,Wunderground v.1.15,2013-02-02 05:54:00,
2013-02-02 01:04:00,20.3,7.9,30.31,WSW,252,3.0,6.0,58,0.00,,,0.00,0,Wunderground v.1.15,2013-02-02 06:04:00,
2013-02-02 01:14:00,20.3,7.9,30.31,SW,226,3.0,6.0,58,0.00,,,0.00,0,Wunderground v.1.15,2013-02-02 06:14:00,
2013-02-02 01:19:00,20.2,8.1,30.31,West,270,3.0,3.0,59,0.00,,,0.00,0,Wunderground v.1.15,2013-02-02 06:19:00,
2013-02-02 01:29:00,19.9,7.9,30.31,WSW,248,3.0,3.0,59,0.00,,,0.00,0,Wunderground v.1.15,2013-02-02 06:29:00,
2013-02-02 01:34:00,19.9,7.5,30.31,WSW,257,3.0,6.0,58,0.00,,,0.00,0,Wunderground v.1.15,2013-02-02 06:34:00,
2013-02-02 01:44:00,19.9,7.9,30.32,WNW,299,4.0,6.0,59,0.00,,,0.00,0,Wunderground v.1.15,2013-02-02 06:44:00,
2013-02-02 01:54:00,19.7,7.7,30.32,West,262,5.0,6.0,59,0.00,,,0.00,0,Wunderground v.1.15,2013-02-02 06:54:00,
2013-02-02 01:59:00,19.6,7.2,30.32,West,272,4.0,6.0,58,0.00,,,0.00,0,Wunderground v.1.15,2013-02-02 06:59:00,
2013-02-02 02:09:00,19.6,7.6,30.33,West,279,4.0,6.0,59,0.00,,,0.00,0,Wunderground v.1.15,2013-02-02 07:09:00,
2013-02-02 02:14:00,19.6,7.2,30.33,WNW,283,3.0,6.0,58,0.00,,,0.00,0,Wunderground v.1.15,2013-02-02 07:14:00,
2013-02-02 02:24:00,19.5,7.5,30.33,West,281,3.0,6.0,59,0.00,,,0.00,0,Wunderground v.1.15,2013-02-02 07:24:00,
2013-02-02 02:29:00,19.4,8.1,30.33,West,268,3.0,3.0,61,0.00,,,0.00,0,Wunderground v.1.15,2013-02-02 07:29:00,
2013-02-02 02:39:00,19.3,8.4,30.33,WSW,248,4.0,4.0,62,0.00,,,0.00,0,Wunderground v.1.15,2013-02-02 07:39:00,
2013-02-02 02:49:00,19.1,8.6,30.33,WSW,247,4.0,6.0,63,0.00,,,0.00,0,Wunderground v.1.15,2013-02-02 07:49:00,
2013-02-02 02:59:00,19.1,8.6,30.34,WNW,290,4.0,6.0,63,0.00,,,0.00,0,Wunderground v.1.15,2013-02-02 07:59:00,
2013-02-02 03:09:00,19.0,8.8,30.33,West,261,3.0,3.0,64,0.00,,,0.00,0,Wunderground v.1.15,2013-02-02 08:09:00,
2013-02-02 03:19:00,18.8,9.0,30.33,WNW,294,4.0,6.0,65,0.00,,,0.00,0,Wunderground v.1.15,2013-02-02 08:19:00,
2013-02-02 03:29:00,18.7,8.5,30.33,WSW,249,4.0,4.0,64,0.00,,,0.00,0,Wunderground v.1.15,2013-02-02 08:29:00,
2013-02-02 03:39:00,18.6,8.8,30.33,NNW,333,4.0,6.0,65,0.00,,,0.00,0,Wunderground v.1.15,2013-02-02 08:39:00,
2013-02-02 03:44:00,18.5,8.3,30.33,NNW,327,4.0,6.0,64,0.00,,,0.00,0,Wunderground v.1.15,2013-02-02 08:44:00,
2013-02-02 03:54:00,18.4,8.2,30.32,SW,227,3.0,6.0,64,0.00,,,0.00,0,Wunderground v.1.15,2013-02-02 08:54:00,
2013-02-02 03:59:00,18.4,8.2,30.33,WSW,254,2.0,2.0,64,0.00,,,0.00,0,Wunderground v.1.15,2013-02-02 08:59:00,
2013-02-02 04:09:00,18.2,8.4,30.33,WNW,303,2.0,6.0,65,0.00,,,0.00,0,Wunderground v.1.15,2013-02-02 09:09:00,
2013-02-02 04:14:00,18.1,8.3,30.33,WNW,294,2.0,6.0,65,0.00,,,0.00,0,Wunderground v.1.15,2013-02-02 09:14:00,
2013-02-02 04:25:00,17.9,8.5,30.33,WSW,252,1.0,6.0,66,0.00,,,0.00,0,Wunderground v.1.15,2013-02-02 09:25:00,
2013-02-02 04:34:00,17.8,8.4,30.33,West,259,3.0,6.0,66,0.00,,,0.00,0,Wunderground v.1.15,2013-02-02 09:34:00,
2013-02-02 04:44:00,17.7,8.3,30.33,WSW,241,3.0,3.0,66,0.00,,,0.00,0,Wunderground v.1.15,2013-02-02 09:44:00,
2013-02-02 04:54:00,17.6,7.8,30.32,WSW,244,3.0,6.0,65,0.00,,,0.00,0,Wunderground v.1.15,2013-02-02 09:54:00,
2013-02-02 05:04:00,17.5,7.7,30.32,SW,219,3.0,6.0,65,0.00,,,0.00,0,Wunderground v.1.15,2013-02-02 10:04:00,
2013-02-02 05:14:00,17.5,7.7,30.32,WSW,246,2.0,6.0,65,0.00,,,0.00,0,Wunderground v.1.15,2013-02-02 10:14:00,
2013-02-02 05:24:00,17.3,7.9,30.32,WSW,256,2.0,6.0,66,0.00,,,0.00,0,Wunderground v.1.15,2013-02-02 10:24:00,
2013-02-02 05:29:00,17.2,7.8,30.32,WSW,242,2.0,6.0,66,0.00,,,0.00,0,Wunderground v.1.15,2013-02-02 10:29:00,
2013-02-02 05:39:00,17.1,7.7,30.32,WSW,248,3.0,3.0,66,0.00,,,0.00,0,Wunderground v.1.15,2013-02-02 10:39:00,
2013-02-02 05:49:00,16.9,7.8,30.33,WSW,252,2.0,6.0,67,0.00,,,0.00,0,Wunderground v.1.15,2013-02-02 10:49:00,
2013-02-02 05:59:00,16.7,7.6,30.33,WSW,244,2.0,6.0,67,0.00,,,0.00,0,Wunderground v.1.15,2013-02-02 10:59:00,
2013-02-02 06:09:00,16.6,7.5,30.33,WNW,290,2.0,6.0,67,0.00,,,0.00,0,Wunderground v.1.15,2013-02-02 11:09:00,
2013-02-02 06:19:00,16.6,7.2,30.33,West,280,2.0,2.0,66,0.00,,,0.00,0,Wunderground v.1.15,2013-02-02 11:19:00,
2013-02-02 06:29:00,16.6,7.2,30.33,West,277,2.0,6.0,66,0.00,,,0.00,0,Wunderground v.1.15,2013-02-02 11:29:00,
2013-02-02 06:39:00,16.5,7.4,30.34,WNW,284,2.0,6.0,67,0.00,,,0.00,0,Wunderground v.1.15,2013-02-02 11:39:00,
2013-02-02 06:49:00,16.4,7.0,30.34,West,281,2.0,6.0,66,0.00,,,0.00,0,Wunderground v.1.15,2013-02-02 11:49:00,
2013-02-02 06:59:00,16.4,7.0,30.34,WSW,258,2.0,2.0,66,0.00,,,0.00,0,Wunderground v.1.15,2013-02-02 11:59:00,
2013-02-02 07:04:00,16.4,7.3,30.34,WSW,257,2.0,6.0,67,0.00,,,0.00,0,Wunderground v.1.15,2013-02-02 12:04:00,
2013-02-02 07:14:00,16.3,7.6,30.34,WSW,248,1.0,6.0,68,0.00,,,0.00,0,Wunderground v.1.15,2013-02-02 12:14:00,
2013-02-02 07:24:00,16.2,7.5,30.34,WSW,248,1.0,2.0,68,0.00,,,0.00,5,Wunderground v.1.15,2013-02-02 12:24:00,
2013-02-02 07:29:00,16.1,7.1,30.34,WSW,248,1.0,6.0,67,0.00,,,0.00,7,Wunderground v.1.15,2013-02-02 12:29:00,
2013-02-02 07:39:00,16.1,7.7,30.34,West,277,1.0,6.0,69,0.00,,,0.00,11,Wunderground v.1.15,2013-02-02 12:39:00,
2013-02-02 07:49:00,16.1,7.4,30.34,WSW,250,1.0,1.0,68,0.00,,,0.00,14,Wunderground v.1.15,2013-02-02 12:49:00,
2013-02-02 07:59:00,16.4,7.3,30.34,WSW,240,2.0,6.0,67,0.00,,,0.00,19,Wunderground v.1.15,2013-02-02 12:59:00,
2013-02-02 08:09:00,16.8,7.4,30.34,WSW,252,3.0,6.0,66,0.00,,,0.00,28,Wunderground v.1.15,2013-02-02 13:09:00,
2013-02-02 08:19:00,17.2,7.1,30.34,WSW,254,3.0,6.0,64,0.00,,,0.00,25,Wunderground v.1.15,2013-02-02 13:19:00,
2013-02-02 08:24:00,17.5,7.4,30.34,WSW,242,3.0,6.0,64,0.00,,,0.00,25,Wunderground v.1.15,2013-02-02 13:24:00,
2013-02-02 08:34:00,17.8,7.0,30.34,NW,319,3.0,6.0,62,0.00,,,0.00,32,Wunderground v.1.15,2013-02-02 13:34:00,
2013-02-02 08:49:00,18.5,7.3,30.34,SW,232,4.0,4.0,61,0.00,,,0.00,125,Wunderground v.1.15,2013-02-02 13:49:00,
2013-02-02 08:59:00,18.9,7.3,30.33,West,269,4.0,4.0,60,0.00,,,0.00,33,Wunderground v.1.15,2013-02-02 13:59:00,
2013-02-02 09:04:00,19.2,7.6,30.33,WNW,284,3.0,6.0,60,0.00,,,0.00,58,Wunderground v.1.15,2013-02-02 14:04:00,
2013-02-02 09:14:00,19.5,7.1,30.33,WSW,244,3.0,6.0,58,0.00,,,0.00,148,Wunderground v.1.15,2013-02-02 14:14:00,
2013-02-02 09:24:00,19.9,7.5,30.33,SSW,207,3.0,6.0,58,0.00,,,0.00,116,Wunderground v.1.15,2013-02-02 14:24:00,
2013-02-02 09:29:00,20.1,7.7,30.32,West,268,4.0,6.0,58,0.00,,,0.00,97,Wunderground v.1.15,2013-02-02 14:29:00,
2013-02-02 09:40:00,20.4,7.6,30.32,SSW,198,3.0,3.0,57,0.00,,,0.00,102,Wunderground v.1.15,2013-02-02 14:40:00,
2013-02-02 09:49:00,20.7,7.5,30.31,NW,311,2.0,6.0,56,0.00,,,0.00,58,Wunderground v.1.15,2013-02-02 14:49:00,
2013-02-02 09:54:00,20.9,7.6,30.31,WSW,244,4.0,6.0,56,0.00,,,0.00,54,Wunderground v.1.15,2013-02-02 14:54:00,
2013-02-02 10:04:00,21.3,7.6,30.31,South,188,2.0,6.0,55,0.00,,,0.00,72,Wunderground v.1.15,2013-02-02 15:04:00,
2013-02-02 10:09:00,21.5,8.2,30.31,West,261,1.0,6.0,56,0.00,,,0.00,105,Wunderground v.1.15,2013-02-02 15:09:00,
2013-02-02 10:19:00,21.9,7.8,30.31,SW,233,4.0,8.0,54,0.00,,,0.00,156,Wunderground v.1.15,2013-02-02 15:19:00,
2013-02-02 10:29:00,22.4,8.7,30.31,SW,226,5.0,7.0,55,0.00,,,0.00,162,Wunderground v.1.15,2013-02-02 15:29:00,
2013-02-02 10:39:00,22.7,8.1,30.30,South,185,4.0,6.0,53,0.00,,,0.00,385,Wunderground v.1.15,2013-02-02 15:39:00,
2013-02-02 10:44:00,23.0,8.8,30.30,WSW,254,4.0,6.0,54,0.00,,,0.00,190,Wunderground v.1.15,2013-02-02 15:44:00,
2013-02-02 10:54:00,23.6,8.9,30.30,NW,306,4.0,6.0,53,0.00,,,0.00,188,Wunderground v.1.15,2013-02-02 15:54:00,
2013-02-02 11:04:00,24.0,8.5,30.29,WSW,240,3.0,7.0,51,0.00,,,0.00,262,Wunderground v.1.15,2013-02-02 16:04:00,
2013-02-02 11:14:00,23.8,7.8,30.28,South,182,6.0,7.0,50,0.00,,,0.00,213,Wunderground v.1.15,2013-02-02 16:14:00,
2013-02-02 11:19:00,23.9,7.9,30.28,SSW,209,6.0,8.0,50,0.00,,,0.00,192,Wunderground v.1.15,2013-02-02 16:19:00,
2013-02-02 11:29:00,24.0,8.0,30.27,West,266,5.0,5.0,50,0.00,,,0.00,162,Wunderground v.1.15,2013-02-02 16:29:00,
2013-02-02 11:35:00,24.2,7.8,30.27,WSW,247,4.0,7.0,49,0.00,,,0.00,163,Wunderground v.1.15,2013-02-02 16:35:00,
2013-02-02 11:44:00,24.4,7.9,30.27,SSW,202,6.0,8.0,49,0.00,,,0.00,267,Wunderground v.1.15,2013-02-02 16:44:00,
2013-02-02 11:54:00,25.1,8.6,30.26,WSW,252,5.0,9.0,49,0.00,,,0.00,323,Wunderground v.1.15,2013-02-02 16:54:00,
2013-02-02 11:59:00,25.6,9.5,30.26,SW,216,5.0,6.0,50,0.00,,,0.00,216,Wunderground v.1.15,2013-02-02 16:59:00,
2013-02-02 12:09:00,26.0,9.0,30.25,WSW,244,5.0,8.0,48,0.00,,,0.00,141,Wunderground v.1.15,2013-02-02 17:09:00,
2013-02-02 12:19:00,25.9,8.9,30.25,SSW,198,7.0,7.0,48,0.00,,,0.00,141,Wunderground v.1.15,2013-02-02 17:19:00,
2013-02-02 12:30:00,26.2,8.7,30.24,West,261,6.0,7.0,47,0.00,,,0.00,171,Wunderground v.1.15,2013-02-02 17:30:00,
2013-02-02 12:39:00,26.3,8.8,30.23,West,269,6.0,10.0,47,0.00,,,0.00,142,Wunderground v.1.15,2013-02-02 17:39:00,
2013-02-02 12:44:00,26.2,8.2,30.23,SSW,213,7.0,10.0,46,0.00,,,0.00,148,Wunderground v.1.15,2013-02-02 17:44:00,
2013-02-02 12:54:00,26.8,8.8,30.22,West,263,4.0,6.0,46,0.00,,,0.00,120,Wunderground v.1.15,2013-02-02 17:54:00,
2013-02-02 12:59:00,26.9,8.4,30.22,SSW,205,6.0,6.0,45,0.00,,,0.00,105,Wunderground v.1.15,2013-02-02 17:59:00,
2013-02-02 13:09:00,26.8,8.8,30.21,West,281,4.0,6.0,46,0.00,,,0.00,121,Wunderground v.1.15,2013-02-02 18:09:00,
2013-02-02 13:14:00,27.1,8.5,30.21,WSW,245,4.0,9.0,45,0.00,,,0.00,137,Wunderground v.1.15,2013-02-02 18:14:00,
2013-02-02 13:24:00,27.1,7.5,30.21,NNW,329,8.0,9.0,43,0.00,,,0.00,84,Wunderground v.1.15,2013-02-02 18:24:00,
2013-02-02 13:34:00,27.4,8.3,30.21,West,264,6.0,6.0,44,0.00,,,0.00,118,Wunderground v.1.15,2013-02-02 18:34:00,
2013-02-02 13:44:00,27.1,7.5,30.20,WNW,298,6.0,7.0,43,0.00,,,0.00,190,Wunderground v.1.15,2013-02-02 18:44:00,
2013-02-02 13:54:00,27.1,8.0,30.19,WNW,300,6.0,6.0,44,0.00,,,0.00,134,Wunderground v.1.15,2013-02-02 18:54:00,
2013-02-02 13:59:00,27.2,9.1,30.19,WNW,292,6.0,12.0,46,0.00,,,0.00,118,Wunderground v.1.15,2013-02-02 18:59:00,
2013-02-02 14:09:00,27.0,8.5,30.19,WSW,242,5.0,5.0,45,0.00,,,0.00,139,Wunderground v.1.15,2013-02-02 19:09:00,
2013-02-02 14:14:00,27.0,8.9,30.19,WSW,238,5.0,6.0,46,0.00,,,0.00,134,Wunderground v.1.15,2013-02-02 19:14:00,
2013-02-02 14:24:00,26.9,9.8,30.18,WSW,237,5.0,7.0,48,0.00,,,0.00,141,Wunderground v.1.15,2013-02-02 19:24:00,
2013-02-02 14:34:00,26.8,10.2,30.18,South,182,4.0,6.0,49,0.00,,,0.00,139,Wunderground v.1.15,2013-02-02 19:34:00,
2013-02-02 14:40:00,26.6,10.0,30.18,West,280,5.0,5.0,49,0.00,,,0.00,132,Wunderground v.1.15,2013-02-02 19:40:00,
2013-02-02 14:49:00,26.3,10.6,30.17,WSW,238,5.0,5.0,51,0.00,,,0.00,130,Wunderground v.1.15,2013-02-02 19:49:00,
2013-02-02 14:54:00,26.3,10.6,30.17,West,269,5.0,8.0,51,0.00,,,0.00,123,Wunderground v.1.15,2013-02-02 19:54:00,
2013-02-02 15:04:00,26.4,11.1,30.17,WSW,247,4.0,6.0,52,0.00,,,0.00,97,Wunderground v.1.15,2013-02-02 20:04:00,
2013-02-02 15:15:00,26.3,11.9,30.17,WNW,298,3.0,6.0,54,0.00,,,0.00,95,Wunderground v.1.15,2013-02-02 20:15:00,
2013-02-02 15:24:00,26.3,12.3,30.17,SW,224,3.0,6.0,55,0.00,,,0.00,83,Wunderground v.1.15,2013-02-02 20:24:00,
2013-02-02 15:34:00,26.4,12.4,30.16,SSW,194,3.0,6.0,55,0.00,,,0.00,83,Wunderground v.1.15,2013-02-02 20:34:00,
2013-02-02 15:39:00,26.4,12.0,30.16,West,278,3.0,3.0,54,0.00,,,0.00,76,Wunderground v.1.15,2013-02-02 20:39:00,
2013-02-02 15:44:00,26.5,12.1,30.16,NW,311,3.0,6.0,54,0.00,,,0.00,70,Wunderground v.1.15,2013-02-02 20:44:00,
2013-02-02 15:54:00,26.6,11.3,30.15,WSW,245,5.0,6.0,52,0.00,,,0.00,54,Wunderground v.1.15,2013-02-02 20:54:00,
2013-02-02 15:59:00,26.7,11.8,30.15,WNW,291,4.0,6.0,53,0.00,,,0.00,51,Wunderground v.1.15,2013-02-02 20:59:00,
2013-02-02 16:09:00,26.6,12.2,30.15,WSW,246,5.0,6.0,54,0.00,,,0.00,49,Wunderground v.1.15,2013-02-02 21:09:00,
2013-02-02 16:19:00,26.6,12.6,30.14,West,279,3.0,6.0,55,0.00,,,0.00,42,Wunderground v.1.15,2013-02-02 21:19:00,
2013-02-02 16:24:00,26.7,12.7,30.14,WNW,283,3.0,6.0,55,0.00,,,0.00,37,Wunderground v.1.15,2013-02-02 21:24:00,
2013-02-02 16:30:00,26.7,12.7,30.14,WNW,284,4.0,4.0,55,0.00,,,0.00,33,Wunderground v.1.15,2013-02-02 21:30:00,
2013-02-02 16:40:00,26.8,12.8,30.14,WSW,247,3.0,3.0,55,0.00,,,0.00,18,Wunderground v.1.15,2013-02-02 21:40:00,
2013-02-02 16:49:00,26.7,12.7,30.14,SW,236,3.0,7.0,55,0.00,,,0.00,12,Wunderground v.1.15,2013-02-02 21:49:00,
2013-02-02 16:54:00,26.7,12.7,30.14,SW,227,4.0,7.0,55,0.00,,,0.00,9,Wunderground v.1.15,2013-02-02 21:54:00,
2013-02-02 17:09:00,26.7,13.1,30.13,West,274,3.0,6.0,56,0.00,,,0.00,0,Wunderground v.1.15,2013-02-02 22:09:00,
2013-02-02 17:15:00,26.7,13.1,30.13,WSW,243,3.0,6.0,56,0.00,,,0.00,0,Wunderground v.1.15,2013-02-02 22:15:00,
2013-02-02 17:24:00,26.6,13.0,30.13,WSW,250,3.0,6.0,56,0.00,,,0.00,0,Wunderground v.1.15,2013-02-02 22:24:00,
2013-02-02 17:29:00,26.6,13.0,30.13,WSW,240,3.0,6.0,56,0.00,,,0.00,0,Wunderground v.1.15,2013-02-02 22:29:00,
2013-02-02 17:39:00,26.6,13.0,30.13,WSW,243,3.0,3.0,56,0.00,,,0.00,0,Wunderground v.1.15,2013-02-02 22:39:00,
2013-02-02 17:49:00,26.6,13.8,30.12,WSW,256,3.0,6.0,58,0.00,,,0.00,0,Wunderground v.1.15,2013-02-02 22:49:00,
2013-02-02 17:54:00,26.6,14.2,30.13,SW,229,3.0,6.0,59,0.00,,,0.00,0,Wunderground v.1.15,2013-02-02 22:54:00,
2013-02-02 17:59:00,26.4,14.4,30.13,WNW,296,2.0,6.0,60,0.00,,,0.00,0,Wunderground v.1.15,2013-02-02 22:59:00,
2013-02-02 18:09:00,26.1,14.5,30.13,South,180,2.0,2.0,61,0.00,,,0.00,0,Wunderground v.1.15,2013-02-02 23:09:00,
2013-02-02 18:14:00,26.1,14.5,30.13,West,261,2.0,3.0,61,0.00,,,0.00,0,Wunderground v.1.15,2013-02-02 23:14:00,
2013-02-02 18:24:00,26.0,14.4,30.12,West,281,2.0,6.0,61,0.00,,,0.00,0,Wunderground v.1.15,2013-02-02 23:24:00,
2013-02-02 18:34:00,26.0,14.8,30.12,WNW,296,2.0,6.0,62,0.00,,,0.00,0,Wunderground v.1.15,2013-02-02 23:34:00,
2013-02-02 18:49:00,25.8,15.6,30.12,WSW,253,4.0,6.0,65,0.00,,,0.00,0,Wunderground v.1.15,2013-02-02 23:49:00,
2013-02-02 18:59:00,25.5,16.4,30.12,WNW,282,5.0,5.0,68,0.00,,,0.00,0,Wunderground v.1.15,2013-02-02 23:59:00,
2013-02-02 19:09:00,25.4,16.3,30.12,WSW,246,2.0,6.0,68,0.00,,,0.00,0,Wunderground v.1.15,2013-02-03 00:09:00,
2013-02-02 19:24:00,25.3,17.2,30.12,SSW,194,3.0,6.0,71,0.00,,,0.00,0,Wunderground v.1.15,2013-02-03 00:24:00,
2013-02-02 19:34:00,25.1,18.0,30.12,West,279,2.0,2.0,74,0.00,,,0.00,0,Wunderground v.1.15,2013-02-03 00:34:00,
2013-02-02 19:44:00,25.0,18.5,30.12,West,269,2.0,2.0,76,0.00,,,0.00,0,Wunderground v.1.15,2013-02-03 00:44:00,
2013-02-02 19:49:00,25.0,18.5,30.12,WSW,240,2.0,3.0,76,0.00,,,0.00,0,Wunderground v.1.15,2013-02-03 00:49:00,
2013-02-02 20:00:00,24.9,18.4,30.12,WSW,256,2.0,7.0,76,0.00,,,0.00,0,Wunderground v.1.15,2013-02-03 01:00:00,
2013-02-02 20:09:00,25.0,18.8,30.12,West,269,3.0,3.0,77,0.00,,,0.00,0,Wunderground v.1.15,2013-02-03 01:09:00,
2013-02-02 20:19:00,24.7,19.7,30.12,WNW,289,3.0,3.0,81,0.00,,,0.00,0,Wunderground v.1.15,2013-02-03 01:19:00,
2013-02-02 20:24:00,24.5,19.8,30.13,WSW,244,3.0,4.0,82,0.00,,,0.00,0,Wunderground v.1.15,2013-02-03 01:24:00,
2013-02-02 20:34:00,24.4,20.0,30.12,WSW,244,2.0,6.0,83,0.00,,,0.00,0,Wunderground v.1.15,2013-02-03 01:34:00,
2013-02-02 20:39:00,24.3,20.2,30.12,WSW,244,1.0,1.0,84,0.00,,,0.00,0,Wunderground v.1.15,2013-02-03 01:39:00,
2013-02-02 20:50:00,24.2,20.3,30.12,WSW,244,1.0,1.0,85,0.00,,,0.00,0,Wunderground v.1.15,2013-02-03 01:50:00,
2013-02-02 21:00:00,24.1,20.5,30.12,WSW,241,1.0,1.0,86,0.00,,,0.00,0,Wunderground v.1.15,2013-02-03 02:00:00,
2013-02-02 21:09:00,24.1,20.8,30.12,WSW,241,0.0,6.0,87,0.00,,,0.00,0,Wunderground v.1.15,2013-02-03 02:09:00,
2013-02-02 21:20:00,24.1,21.1,30.12,WSW,241,0.0,6.0,88,0.00,,,0.00,0,Wunderground v.1.15,2013-02-03 02:20:00,
2013-02-02 21:35:00,24.0,21.2,30.12,WSW,241,0.0,6.0,89,0.00,,,0.00,0,Wunderground v.1.15,2013-02-03 02:35:00,
2013-02-02 21:44:00,24.0,21.2,30.11,WSW,241,0.0,6.0,89,0.00,,,0.00,0,Wunderground v.1.15,2013-02-03 02:44:00,
2013-02-02 21:49:00,24.0,21.2,30.11,WSW,241,0.0,6.0,89,0.00,,,0.00,0,Wunderground v.1.15,2013-02-03 02:49:00,
2013-02-02 21:59:00,24.0,21.2,30.11,WSW,241,0.0,6.0,89,0.00,,,0.00,0,Wunderground v.1.15,2013-02-03 02:59:00,
2013-02-02 22:09:00,24.0,21.5,30.10,WSW,241,0.0,6.0,90,0.00,,,0.00,0,Wunderground v.1.15,2013-02-03 03:09:00,
2013-02-02 22:19:00,24.1,21.6,30.10,WSW,241,0.0,6.0,90,0.00,,,0.00,0,Wunderground v.1.15,2013-02-03 03:19:00,
2013-02-02 22:24:00,24.0,21.5,30.09,WSW,241,0.0,6.0,90,0.00,,,0.00,0,Wunderground v.1.15,2013-02-03 03:24:00,
2013-02-02 22:34:00,24.1,21.6,30.09,WSW,241,0.0,6.0,90,0.00,,,0.00,0,Wunderground v.1.15,2013-02-03 03:34:00,
2013-02-02 22:40:00,24.1,21.6,30.09,WSW,241,0.0,6.0,90,0.00,,,0.00,0,Wunderground v.1.15,2013-02-03 03:40:00,
2013-02-02 22:49:00,24.0,21.5,30.08,SE,132,1.0,6.0,90,0.00,,,0.00,0,Wunderground v.1.15,2013-02-03 03:49:00,
2013-02-02 22:55:00,24.0,21.8,30.08,SE,132,1.0,1.0,91,0.00,,,0.00,0,Wunderground v.1.15,2013-02-03 03:55:00,
2013-02-02 23:04:00,23.9,21.7,30.08,SE,132,0.0,6.0,91,0.00,,,0.00,0,Wunderground v.1.15,2013-02-03 04:04:00,
2013-02-02 23:09:00,23.9,21.7,30.08,SE,132,0.0,6.0,91,0.00,,,0.00,0,Wunderground v.1.15,2013-02-03 04:09:00,
2013-02-02 23:19:00,23.9,21.7,30.08,SE,132,0.0,6.0,91,0.00,,,0.00,0,Wunderground v.1.15,2013-02-03 04:19:00,
2013-02-02 23:29:00,23.9,21.7,30.07,SE,132,0.0,6.0,91,0.00,,,0.00,0,Wunderground v.1.15,2013-02-03 04:29:00,
2013-02-02 23:35:00,23.9,21.7,30.07,SE,132,0.0,6.0,91,0.00,,,0.00,0,Wunderground v.1.15,2013-02-03 04:35:00,
2013-02-02 23:44:00,23.9,21.9,30.07,SE,132,0.0,6.0,92,0.00,,,0.00,0,Wunderground v.1.15,2013-02-03 04:44:00,
2013-02-02 23:50:00,24.0,22.0,30.07,SE,132,0.0,6.0,92,0.00,,,0.00,0,Wunderground v.1.15,2013-02-03 04:50:00,
2013-02-02 23:59:00,24.0,22.0,30.06,SE,132,0.0,6.0,92,0.00,,,0.00,0,Wunderground v.1.15,2013-02-03 04:59:00,